Regional Weather Roundup
Issued by NWS Memphis, TN

Home | Current Version | Previous Version | Text Only | Print | Product List | Glossary On
Versions: 1 2 3 4 5 6 7 8 9 10 11 12 13 14 15 16 17 18 19 20 21 22 23 24 25 26 27 28 29 30 31 32 33 34 35 36 37 38 39 40 41 42 43 44 45 46 47 48 49 50
000
ASUS44 KMEG 301910
RWRMEG
MEMPHIS CWA HOURLY WEATHER ROUNDUP
NATIONAL WEATHER SERVICE MEMPHIS TN
200 PM CDT SAT MAY 30 2015

...WEST TENNESSEE...

CITY           SKY/WX    TMP DP  RH WIND       PRES   REMARKS
MEMPHIS INTL   PTSUNNY   83  68  60 SW13G26   29.99F
NWS MEMPHIS      N/A     81 N/A N/A MISG        N/A
JACKSON        PTSUNNY   73  69  87 SE9       30.00R
LEXINGTON      SUNNY     77  64  65 S10       30.01F
DYERSBURG      CLOUDY    72  55  56 SW9G17    29.98R
PARIS          PTSUNNY   81  70  69 S21       29.98S


...EASTERN ARKANSAS...

CITY           SKY/WX    TMP DP  RH WIND       PRES   REMARKS
JONESBORO      CLOUDY    72  70  93 SW12      29.97S
WEST MEMPHIS   LGT RAIN  79  69  71 W8G21     29.98F
BATESVILLE     PTSUNNY   79  68  69 W9        29.99F
NEWPORT        CLOUDY    78  70  76 W10       29.99F
WALNUT RIDGE   CLOUDY    77  64  65 W13       29.96S
BLYTHEVILLE    LGT RAIN  78  70  76 SW16G28   29.95F
SEARCY         MOSUNNY   80  69  69 VRB7      30.02F
STUTTGART      CLOUDY    79  70  73 W13G18    30.03S
PINE BLUFF     MOSUNNY   82  67  60 W12       30.02F
MONTICELLO     CLOUDY    71  67  87 W9        30.03F


...NORTH MISSISSIPPI...

CITY           SKY/WX    TMP DP  RH WIND       PRES   REMARKS
TUPELO         LGT RAIN  77  67  71 SW13      30.04F
OXFORD         PTSUNNY   81  66  61 SW14G22   30.03F
OLIVE BRANCH   PTSUNNY   81  73  78 SW12G22   30.00F
TUNICA         PTSUNNY   82  68  61 SW15      30.01F
CLARKSDALE     PTSUNNY   84  72  65 CALM      30.01F
GREENWOOD      LGT RAIN  74  66  76 W7        30.03F
COLUMBUS       MOSUNNY   85  69  57 S15       30.05F
STARKVILLE     FAIR      82  66  57 S13       30.06S
GOLDEN TRIANGL PTSUNNY   84  70  61 SW7       30.05F


...SOUTHEAST MISSOURI...

CITY           SKY/WX    TMP DP  RH WIND       PRES   REMARKS
WEST PLAINS    LGT RAIN  74  67  78 NW9       29.99F
POPLAR BLUFF   LGT RAIN  70  68  93 W10       29.89S FOG
CAPE GIRARDEAU CLOUDY    72  69  90 S13G21    29.88F


...NORTHWEST ALABAMA...

CITY           SKY/WX    TMP DP  RH WIND       PRES   REMARKS
MUSCLE SHOALS  PTSUNNY   84  65  52 S13       30.07F


...MIDDLE TENNESSEE...

CITY           SKY/WX    TMP DP  RH WIND       PRES   REMARKS
NASHVILLE      PTSUNNY   79  70  74 S13       30.07F
CLARKSVILLE    MOSUNNY   82  66  58 S14G28    30.00F
COLUMBIA       MOSUNNY   82  66  57 SW15G26   30.04F


...WESTERN KENTUCKY...

CITY           SKY/WX    TMP DP  RH WIND       PRES   REMARKS
PADUCAH        TSTM      69  66  90 S23G38    29.94R VSB 1/2
FORT CAMPBELL  MOSUNNY   82  65  58 S18G25    29.99F


...CENTRAL ARKANSAS...

CITY           SKY/WX    TMP DP  RH WIND       PRES   REMARKS
LITTLE ROCK    PTSUNNY   79  66  64 W9G16     30.03S


SKY/WX REPORTED AS FAIR MEANS FEW OR NO CLOUDS BELOW
12 THOUSAND FEET.




USA.gov is the U.S. government's official web portal to all federal, state and local government web resources and services.